TimePDT,TemperatureF,Dew PointF,Humidity,Sea Level PressureIn,VisibilityMPH,Wind Direction,Wind SpeedMPH,Gust SpeedMPH,PrecipitationIn,Events,Conditions,WindDirDegrees,DateUTC
12:00 AM,50.4,47.7,90,29.95,-9999.0,WSW,1.2,-,N/A,,Unknown,250,2012-10-08 07:00:00
1:00 AM,49.5,45.7,87,29.95,-9999.0,NW,1.2,-,N/A,,Unknown,310,2012-10-08 08:00:00
2:00 AM,47.8,45.7,92,29.96,-9999.0,North,1.2,-,N/A,,Unknown,360,2012-10-08 09:00:00
3:00 AM,47.5,44.2,89,29.96,-9999.0,WNW,2.3,-,N/A,,Unknown,290,2012-10-08 10:00:00
4:00 AM,45.0,43.5,95,29.95,-9999.0,East,1.2,-,N/A,,Unknown,80,2012-10-08 11:00:00
5:00 AM,48,46,92,29.95,,North,2.3,,,,,350,2012-10-08 12:00:00
5:00 AM,48.2,46.4,93,29.95,-9999.0,North,2.3,-,N/A,,Unknown,350,2012-10-08 12:00:00
6:00 AM,46.8,43.9,90,29.95,-9999.0,NNW,2.3,-,N/A,,Unknown,330,2012-10-08 13:00:00
7:00 AM,55.0,46.2,72,29.96,-9999.0,NNE,4.6,-,N/A,,Unknown,20,2012-10-08 14:00:00
8:00 AM,55.0,44.6,68,29.96,-9999.0,NE,9.2,-,N/A,,Unknown,50,2012-10-08 15:00:00
9:00 AM,58.8,46.8,64,29.97,-9999.0,NE,4.6,-,N/A,,Unknown,40,2012-10-08 16:00:00
10:00 AM,60.3,44.6,56,29.96,-9999.0,NE,11.5,-,N/A,,Unknown,40,2012-10-08 17:00:00
11:00 AM,63,44,39,29.96,,NE,13.8,,,,,50,2012-10-08 18:00:00
11:00 AM,63.3,44.1,49,29.96,-9999.0,NE,13.8,-,N/A,,Unknown,50,2012-10-08 18:00:00
12:00 PM,68.9,46.0,44,29.95,-9999.0,SSW,2.3,-,N/A,,Unknown,200,2012-10-08 19:00:00
1:00 PM,69.3,47.1,45,29.94,-9999.0,NW,5.8,-,N/A,,Unknown,310,2012-10-08 20:00:00
2:00 PM,70.9,45.3,40,29.93,-9999.0,WNW,2.3,-,N/A,,Unknown,290,2012-10-08 21:00:00
4:00 PM,72.0,47.1,41,29.93,-9999.0,SW,4.6,-,N/A,,Unknown,220,2012-10-08 23:00:00
5:00 PM,71,48,33,29.92,,SSW,4.6,,,,,210,2012-10-09 00:00:00
5:00 PM,70.9,47.8,44,29.92,-9999.0,SSW,4.6,-,N/A,,Unknown,210,2012-10-09 00:00:00
6:00 PM,67.5,49.1,52,29.93,-9999.0,Calm,Calm,-,N/A,,Unknown,0,2012-10-09 01:00:00
7:00 PM,60.4,48.4,64,29.94,-9999.0,North,1.2,-,N/A,,Unknown,10,2012-10-09 02:00:00
8:00 PM,59.7,46.9,63,29.96,-9999.0,ESE,1.2,-,N/A,,Unknown,120,2012-10-09 03:00:00
10:00 PM,51.8,47.5,85,29.99,-9999.0,Calm,Calm,-,N/A,,Unknown,0,2012-10-09 05:00:00
11:00 PM,48,46,90,30.01,,Calm,Calm,,,,,,2012-10-09 06:00:00
11:00 PM,48.0,46.0,93,30.01,-9999.0,Calm,Calm,-,N/A,,Unknown,0,2012-10-09 06:00:00